K5KVN-2 Weather Reports


time (UTC)temp
F
wind
direction
speed
knots
gust
knots
rain 1hr
in
rain 24hr
in
rain mn
in
humidity
%
barometer
mb
20260504231525 74 169 11.3 20.0 0.00 0.00 0.00 56 1006.2
20260504230527 74 155 11.3 22.6 0.00 0.00 0.00 55 1006.3
20260504225526 75 178 10.4 19.1 0.00 0.00 0.00 55 1006.3
20260504225010 75 160 10.4 20.0 0.00 0.00 0.00 54 1006.1
20260504223525 76 182 11.3 21.7 0.00 0.00 0.00 54 1006.2
20260504222527 76 169 10.4 19.1 0.00 0.00 0.00 53 1006.0
20260504221523 76 165 9.6 20.0 0.00 0.00 0.00 55 1005.9
20260504220528 76 191 11.3 21.7 0.00 0.00 0.00 54 1006.0
20260504220009 76 176 13.0 22.6 0.00 0.00 0.00 51 1006.2
20260504214519 76 144 12.2 22.6 0.00 0.00 0.00 54 1006.2
20260504213519 77 173 12.2 20.9 0.00 0.00 0.00 56 1006.3
20260504212517 77 182 11.3 19.1 0.00 0.00 0.00 53 1006.4
20260504211516 76 154 13.9 22.6 0.00 0.00 0.00 53 1006.5
20260504210516 76 184 13.0 25.2 0.00 0.00 0.00 53 1006.7
20260504205515 76 184 13.9 26.1 0.00 0.00 0.00 53 1006.9
20260504204959 76 209 13.9 25.2 0.00 0.00 0.00 51 1007.2
20260504203519 77 203 12.2 23.5 0.00 0.00 0.00 53 1007.4
20260504202955 77 201 13.0 24.3 0.00 0.00 0.00 51 1007.4
20260504201513 77 193 11.3 23.5 0.00 0.00 0.00 52 1007.8
20260504200510 77 159 13.0 24.3 0.00 0.00 0.00 52 1007.8
20260504195509 77 182 13.0 20.9 0.00 0.00 0.00 52 1007.9
20260504195004 76 168 12.2 22.6 0.00 0.00 0.00 51 1008.0
20260504193509 77 197 11.3 19.1 0.00 0.00 0.00 51 1008.0
20260504192512 76 163 14.8 25.2 0.00 0.00 0.00 56 1008.2
20260504191509 76 163 12.2 24.3 0.00 0.00 0.00 52 1008.2
20260504190512 76 175 12.2 23.5 0.00 0.00 0.00 53 1008.4
20260504185507 76 200 13.0 24.3 0.00 0.00 0.00 53 1008.3
20260504184507 76 166 13.9 25.2 0.00 0.00 0.00 53 1008.4
20260504183506 75 167 14.8 27.8 0.00 0.00 0.00 53 1008.6
20260504182508 76 176 13.9 23.5 0.00 0.00 0.00 54 1008.8
20260504181517 76 185 13.0 24.3 0.00 0.00 0.00 57 1008.8
20260504180509 76 178 11.3 20.9 0.00 0.00 0.00 55 1009.0
20260504175507 75 228 13.0 25.2 0.00 0.00 0.00 56 1009.0
20260504174505 75 184 13.0 20.9 0.00 0.00 0.00 55 1009.2
20260504173503 74 182 13.9 22.6 0.00 0.00 0.00 57 1009.5
20260504172500 74 163 12.2 20.0 0.00 0.00 0.00 57 1009.6
20260504171504 74 185 13.0 24.3 0.00 0.00 0.00 57 1009.4
20260504170503 73 169 14.8 21.7 0.00 0.00 0.00 56 1009.5
20260504150501 70 194 10.4 22.6 0.00 0.00 0.00 55 1010.4
20260504140502 67 193 8.7 18.2 0.00 0.00 0.00 59 1010.8
20260504130501 63 159 5.2 9.6 0.00 0.00 0.00 65 1011.2
20260504110450 59 200 7.0 12.2 0.00 0.00 0.00 68 1010.8
20260504100448 60 198 5.2 10.4 0.00 0.00 0.00 65 1011.1
20260504081439 63 211 6.1 11.3 0.00 0.00 0.00 59 1011.6
20260504080439 64 178 6.1 11.3 0.00 0.00 0.00 59 1011.7
20260504050438 67 198 5.2 10.4 0.00 0.00 0.00 56 1013.1
20260504045436 67 175 5.2 8.7 0.00 0.00 0.00 56 1012.9
20260504044436 67 225 5.2 8.7 0.00 0.00 0.00 56 1013.1
20260504043437 68 175 5.2 10.4 0.00 0.00 0.00 54 1013.2
20260504042436 68 207 5.2 10.4 0.00 0.00 0.00 54 1013.4
20260504041435 68 197 5.2 11.3 0.00 0.00 0.00 54 1013.3
20260504035918 68 188 6.1 10.4 0.00 0.00 0.00 54 1013.3
20260504034436 67 229 5.2 7.8 0.00 0.00 0.00 55 1013.3
20260504033438 68 178 5.2 8.7 0.00 0.00 0.00 54 1013.3
20260504032435 68 184 5.2 10.4 0.00 0.00 0.00 53 1013.4
20260504031920 68 162 5.2 8.7 0.00 0.00 0.00 53 1013.4
20260504030432 68 194 5.2 8.7 0.00 0.00 0.00 53 1013.4
20260504023916 68 209 6.1 8.7 0.00 0.00 0.00 54 1013.2
20260504022432 68 181 5.2 8.7 0.00 0.00 0.00 53 1013.2
20260504021431 68 182 5.2 8.7 0.00 0.00 0.00 54 1012.9
20260504020432 68 180 5.2 9.6 0.00 0.00 0.00 53 1012.9
20260504015433 68 176 4.3 8.7 0.00 0.00 0.00 54 1012.8
20260504014431 69 188 4.3 6.1 0.00 0.00 0.00 54 1012.8
20260504013436 69 174 3.5 6.1 0.00 0.00 0.00 53 1012.8
20260504012430 70 186 3.5 6.1 0.00 0.00 0.00 52 1012.8
20260504011430 71 192 3.5 6.1 0.00 0.00 0.00 50 1012.7
20260504005431 72 195 4.3 6.1 0.00 0.00 0.00 48 1012.6
20260504004428 73 192 3.5 5.2 0.00 0.00 0.00 47 1012.6
20260504003427 74 186 2.6 4.3 0.00 0.00 0.00 45 1012.6
20260504002427 75 227 2.6 7.0 0.00 0.00 0.00 42 1012.7
20260504001906 76 209 2.6 5.2 0.00 0.00 0.00 40 1012.8
20260504000424 76 215 2.6 6.1 0.00 0.00 0.00 39 1012.8
20260503235424 76 204 3.5 6.1 0.00 0.00 0.00 36 1013.1
20260503234424 77 199 3.5 9.6 0.00 0.00 0.00 35 1013.1
20260503233430 77 199 3.5 9.6 0.00 0.00 0.00 34 1013.2
20260503232420 77 196 4.3 10.4 0.00 0.00 0.00 31 1013.2